www.pogodaiklimat.ru

Погода и климат >> Архив погоды >> Россия >> Коми >> Печора


АРХИВ ПОГОДЫ в Печоре

Время (UTC), дата Ветер
(напр.,м/с)
 
Видим.   Явления Облачность Т
(С)
Тd
(С)
f
(%)
Тe
(С)
Тes
(С)
Комфортность P
(гПа)
Po
(гПа)
Тmin
(С)
Tmax
(С)
R
(мм)
R24
(мм)
S
(см)
09 17.04 З 3 15 км 9/0
[Ci fib]
-5.0 -14.6 47 -10 -5 холодно 1030.6 1023.0
12 17.04 СЗ 3 15 км 9/0
[Ci ing]
-2.3 -15.6 35 -6 -4 прохладно 1028.1 1020.6
15 17.04 З 4 2100 м снег 10/8 570 м
[Sc As op]
-2.0 -10.0 54 -7 -7 по сезону 1025.6 1018.1 -1.5 0.0
18 17.04 ЮЗ 3 15 км в посл. час снег 9/6 900 м
[Sc Ac trans]
-2.3 -5.5 79 -7 -7 по сезону 1023.0 1015.5
21 17.04 З 4 10 км слаб. снег 10/8 450 м
[Sc As op]
-1.3 -4.3 80 -7 -7 по сезону 1020.9 1013.5
00 18.04 З 5 15 км {снег} 9/8 420 м
[Sc Ac trans]
-0.8 -3.0 85 -7 -7 по сезону 1019.2 1011.8
03 18.04 З 4 15 км 9/9 400 м
[St]
-0.4 -2.5 86 -6 -6 по сезону 1018.7 1011.3 -3.1 0.2 98
06 18.04 СЗ 4 1900 м слаб. ливневой снег 10/8 330 м
[Cb cap Ac und]
+0.6 -1.7 85 -5 -4 по сезону 1018.4 1011.0
09 18.04 СЗ 4 2400 м слаб. ливневой снег 10/8 330 м
[Cb cap Ac und]
+0.9 +0.1 94 -5 -4 по сезону 1019.4 1012.0
12 18.04 З 3 4200 м слаб. ливневой снег 10/8 500 м
[Cb cap Ac und]
+2.1 -0.1 85 -2 -2 по сезону 1020.2 1012.9
15 18.04 СЗ 2
{10}
15 км {ливн. осадки} 10/6 1170 м
[Cb cap Ac und]
+1.1 -0.9 86 -2 -2 по сезону 1020.6 1013.2 +3.0 1
18 18.04 ЮЗ 2 15 км {ливн. осадки} 10/10 1500 м
[Sc]
+0.7 -1.6 85 -3 -3 по сезону 1020.6 1013.2
21 18.04 ЮЗ 3 15 км 10/10 1500 м
[Sc]
+0.7 -3.9 71 -4 -4 по сезону 1019.6 1012.2
00 19.04 З 3 15 км 10/10 600 м
[Sc]
+0.6 -2.7 79 -4 -4 тепло 1018.7 1011.3
03 19.04 СЗ 4 15 км 10/10 480 м
[Sc]
+0.9 -1.1 86 -4 -4 по сезону 1018.0 1010.6 +0.5 94
06 19.04 С 5 15 км {ливн. осадки} 10/10 800 м
[Sc]
+0.9 -5.1 64 -5 -5 по сезону 1018.7 1011.3 -0.2
09 19.04 С 4 15 км 10/10 930 м
[Sc]
+2.4 -4.3 61 -2 -2 по сезону 1019.1 1011.8
12 19.04 С 4 15 км {ливн. осадки} 10/10 1000 м
[Sc]
+2.7 -4.2 60 -2 -2 по сезону 1019.9 1012.6
15 19.04 С 3 15 км 10/10 960 м
[Sc]
+2.7 -3.5 64 -1 -1 по сезону 1020.1 1012.8 +3.4 0.0
18 19.04 СЗ 3 15 км 10/10 800 м
[Sc]
+1.8 -1.3 80 -2 -2 по сезону 1020.7 1013.3
21 19.04 СЗ 2 9000 м слаб. снег 10/6 360 м
[Frnb As op]
+1.1 0.0 92 -2 -2 тепло 1021.0 1013.6
00 20.04 СЗ 3 8000 м слаб. снег 10/6 270 м
[Frnb As op]
+1.0 -0.1 92 -4 -4 тепло 1021.3 1013.9
03 20.04 СЗ 3 15 км {снег} 10/10 270 м
[St]
+1.3 -0.4 88 -3 -3 по сезону 1021.7 1014.3 +0.8 0.0 93
06 20.04 СЗ 3 15 км {снег} 10/10 500 м
[Sc]
+2.3 -0.4 82 -2 -2 по сезону 1022.1 1014.8
09 20.04 С 3 15 км 10/10 660 м
[Sc]
+3.5 -1.2 71 -0 -0 по сезону 1022.2 1014.9
12 20.04 СЗ 3 15 км 10/10 800 м
[Sc]
+3.5 -2.1 67 0 0 по сезону 1022.0 1014.7
15 20.04 З 3 15 км 10/10 1440 м
[Sc]
+2.8 -1.1 75 -1 -1 по сезону 1021.2 1013.9 +3.8
18 20.04 З 2 15 км 10/10 1350 м
[Sc]
+1.7 -2.0 76 -1 -1 по сезону 1019.8 1012.4
21 20.04 З 4 9000 м слаб. ливневой снег 10/6 1200 м
[Cb cap Ac und]
+0.8 -1.5 85 -4 -4 по сезону 1018.2 1010.8
00 21.04 ЮЗ 4 3600 м слаб. ливневой снег 10/6 930 м
[Cb cap Ac und]
-0.1 -1.0 94 -6 -6 по сезону 1015.3 1007.9
03 21.04 З 3 15 км в посл. час ливневой снег 10/6 600 м
[Cb cap Ac und]
+0.7 -1.3 86 -4 -4 по сезону 1013.9 1006.5 -0.3 0.6 92
06 21.04 З 4 15 км в посл. час ливневой дождь 10/10 450 м
[Sc]
+2.3 +0.1 85 -3 -3 по сезону 1013.8 1006.5
09 21.04 З 4 15 км 10/10 570 м
[Sc]
+4.1 +0.4 77 -0 -0 по сезону 1014.6 1007.3
12 21.04 СЗ 4 15 км {ливн. осадки} 10/8 720 м
[Cb cap Ac und]
+4.3 -0.2 73 0 0 по сезону 1015.8 1008.5
15 21.04 ЮЗ 2 15 км 10/10 500 м
[Sc]
+3.1 +0.7 84 0 0 по сезону 1015.8 1008.5 +4.5 0.0
18 21.04 ЮЗ 3 15 км 10/10 960 м
[Sc]
+4.0 +0.6 78 0 0 тепло 1014.3 1007.0
21 21.04 ЮЗ 4 9000 м слаб. дождь 10/0
[As op]
+4.5 -0.6 69 +1 +1 тепло 1013.3 1006.0
00 22.04 ЮЗ 3 15 км в посл. час дождь 9/6 1230 м
[Sc Ac trans]
+4.4 -0.1 73 +1 +1 тепло 1011.9 1004.7
03 22.04 ЮЗ 4 15 км 10/0
[Ac und]
+5.1 -2.1 60 +1 +2 тепло 1010.1 1002.9 +2.9 0.0 86
06 22.04 З 4 10 км слаб. ливневой дождь 10/8 1110 м
[Cb cap Ac und]
+6.1 -3.9 49 +3 +3 тепло 1008.8 1001.6
09 22.04 ЮЗ 4 8000 м слаб. ливневой дождь 10/8 700 м
[Cb cap Ac und]
+4.1 +1.6 84 -0 0 по сезону 1008.3 1001.1
12 22.04 З 5 15 км {ливн. осадки} 10/8 600 м
[Cb cap Ac und]
+4.1 +2.1 87 -1 -1 по сезону 1007.9 1000.7
15 22.04 СЗ 5 15 км {ливн. осадки} 9/9 900 м
[Sc]
+4.0 +0.9 80 -1 -1 по сезону 1008.7 1001.5 +6.4 1
18 22.04 З 4 15 км {ливн. осадки} 9/9 1320 м
[Sc]
+3.9 -0.4 74 -0 -0 тепло 1008.9 1001.7
21 22.04 СЗ 4 15 км 10/10 700 м
[Sc]
+3.0 -0.5 78 -2 -2 тепло 1008.6 1001.4
00 23.04 СЗ 5 15 км 10/10 660 м
[Sc]
+1.4 +0.3 92 -4 -4 по сезону 1010.4 1003.0
03 23.04 СЗ 5
{10}
15 км 10/10 700 м
[Sc]
-1.5 -5.6 74 -8 -8 по сезону 1014.2 1006.8 -1.6 80
06 23.04 С 4
{10}
15 км {ливн. осадки} 9/9 1050 м
[Cb cap]
-1.5 -9.2 56 -7 -6 прохладно 1016.9 1009.5 -2.5
09 23.04 СЗ 2 15 км 10/10 1000 м
[Sc]
-0.4 -7.5 59 -4 -4 по сезону 1017.4 1010.0
12 23.04 штиль 0 15 км 10/10 1050 м
[Sc]
+0.5 -7.3 56 0 0 по сезону 1017.2 1009.8
15 23.04 ЮВ 2 15 км 10/0
[Ac trans Ci fib]
-0.2 -8.0 56 -3 -3 по сезону 1015.8 1008.4 +1.3 0.0
18 23.04 ЮВ 2 15 км 9/8 600 м
[Sc Ac trans]
-0.9 -7.4 61 -4 -4 по сезону 1014.5 1007.1
21 23.04 Ю 3 15 км 9/0
[Ac trans]
-1.8 -7.9 63 -6 -6 по сезону 1012.7 1005.3
00 24.04 ЮВ 2 6000 м слаб. снег 10/8 540 м
[Sc As op]
-2.2 -5.8 76 -6 -6 по сезону 1011.6 1004.2
03 24.04 ЮВ 3 4600 м слаб. снег 10/6 500 м
[Sc As op]
-1.7 -3.8 86 -7 -7 по сезону 1011.4 1004.0 -2.3 0.6 80
06 24.04 В 2 3400 м снег 10/6 600 м
[Sc As op]
-0.6 -3.1 83 -4 -4 по сезону 1011.3 1003.9

 

Местоположение метеостанции Печора (Коми, Россия): широта 65.12 долгота 57.10 высота над уровнем моря 59 м.

В архиве по умолчанию представлена погода в Печоре за последнюю неделю. Архивные данные за месяц целиком и за предыдущие месяцы, начиная с января 2011 года, Вы можете получить, выбрав интересующий диапазон дат из раскрывающегося списка и нажав кнопку "Ввод!".


*Определитесь, кто Вы:
робот инопланетянин человек

Внимание! Время в таблицах - всемирное. Для получения местного времени необходимо прибавить поправку, которая равна 3 ч.

Смотрите также архив погоды в соседних городах и на ближайших метеорологических станциях:

Погода в Усть-Усе (Коми, Россия) (95 км)
Погода в Усть-Щугоре (Коми, Россия) (98 км)
Погода в Усинске (Коми, Россия) (102 км)
Погода в Ираеле (Коми, Россия) (105 км)
Погода в Мутном Материке (Коми, Россия) (128 км)
Погода в Вуктыле (Коми, Россия) (144 км)
Погода в Ижме (Коми, Россия) (150 км)
Погода в Кедва-Воме (Коми, Россия) (196 км)
Погода в Саранпауле (Ханты-Мансийский АО, Россия) (202 км)
Погода в Харуте (Ненецкий АО, Россия) (222 км)

Пояснения к столбцам:

Ветер - указаны скорость ветра в м/с - средняя за 10 мин, порывы в срок и между сроками (в фигурных скобках) и направление, откуда дует ветер: С - северный, СВ - северо-восточный, В - восточный, ЮВ - юго-восточный, Ю - южный, ЮЗ - юго-западный, З - западный, СЗ - северо-западный.
Видимость - горизонтальная дальность видимости в метрах или километрах. При видимости от 1 до 10 км при отсутствии осадков обычно наблюдается дымка, при ухудшении видимости до 1 км и менее - туман. В сухую погоду видимость может ухудшаться дымом, пылью или мглою.
Явления - указаны атмосферные явления, наблюдавшиеся в срок или в последний час перед сроком; фигурными скобками обозначены явления, наблюдавшиеся между сроками (за 1-3 часа до срока); квадратными скобками обозначены град или гололедные отложения с указанием их диаметра в мм.
Облачность - указаны через наклонную черту общая и нижняя облачность в баллах и высота нижней границы облаков в метрах; квадратными скобками обозначены формы облаков: Ci - перистые, Cs - перисто-слоистые, Cc - перисто-кучевые, Ac - высококучевые, As - высокослоистые, Sc - слоисто-кучевые, Ns - слоисто-дождевые, Cu - кучевые, Cb - кучево-дождевые. Подробнее классификацию облаков см. в Атласе облаков (PDF).
T - Температура воздуха - температура, измеренная на высоте 2 м над землей.
Td - Температура точки росы - температура, при понижении до которой содержащийся в воздухе водяной пар достигнет насыщения.
f - Относительная влажность воздуха - влажноcть воздуха, измеренная на высоте 2 м над землей.
Te - Эффективная температура - температура, которую ощущает одетый по сезону человек в тени. Характеристика душности погоды. При расчете учитывается влияние влажности воздуха и скорости ветра на теплоощущения человека.
Tes - Эффективная температура на солнце - температура, которую ощущает человек, с поправкой на солнечный нагрев. Характеристика знойности погоды. Зависит от высоты солнца над горизонтом, облачности и скорости ветра. Ночью, в пасмурную погоду, а также при ветре 12 м/с и более поправка равна нулю.
P - Атмосферное давление - приведенное к уровню моря атмосферное давление.
Po - Атмосферное давление - измеренное на уровне метеостанции атмосферное давление.
Tmin - Минимальная температура - минимум температуры воздуха на высоте 2 м над землей.
Tmax - Максимальная температура - максимум температуры воздуха на высоте 2 м над землей.
R - Количество осадков - Количество выпавших осадков за период времени, мм. При наведении курсора мыши на число - период времени, за который выпало указанное количество осадков.
R24 - Количество осадков - Количество выпавших осадков за 24 часа, мм.
S - Снежный покров - Высота снежного покрова, см. При наведении курсора мыши на число - состояние снежного покрова и степень покрытия местности в баллах.